RAM407 GMMN-GMMX

Flight info

Callsign RAM407
Flight time 0h 33m
Altitude 17000
Route FOBAC R722 MABAP
Aircraft B738/M-SDE2E3FGHIRWXY/LB1

Departure

Time 2026-04-28 17:16
Airport Mohammed V International Airport (GMMN)

Arrival

Time 2026-04-28 17:49
Airport Marrakesh Menara Airport (GMMX)
Time Latitude Longitude Altitude Speed Heading
2026-04-28 16:44 33.37031 -7.58158 0 ft 0 kts 76°
2026-04-28 17:04 33.37029 -7.58170 317 ft 4 kts 30°
2026-04-28 17:04 33.37011 -7.58183 338 ft 3 kts 46°
2026-04-28 17:05 33.36992 -7.58239 653 ft 4 kts 94°
2026-04-28 17:05 33.36993 -7.58252 653 ft 0 kts 97°
2026-04-28 17:09 33.36987 -7.58232 653 ft 8 kts 119°
2026-04-28 17:09 33.36949 -7.58250 653 ft 12 kts 235°
2026-04-28 17:09 33.36908 -7.58402 656 ft 18 kts 255°
2026-04-28 17:10 33.36810 -7.58450 654 ft 17 kts 164°
2026-04-28 17:10 33.36696 -7.58410 659 ft 17 kts 164°
2026-04-28 17:10 33.36585 -7.58373 655 ft 16 kts 165°
2026-04-28 17:10 33.36480 -7.58336 657 ft 16 kts 163°
2026-04-28 17:11 33.36378 -7.58301 656 ft 15 kts 164°
2026-04-28 17:11 33.36280 -7.58267 657 ft 14 kts 164°
2026-04-28 17:11 33.36187 -7.58236 658 ft 14 kts 163°
2026-04-28 17:11 33.36098 -7.58205 658 ft 13 kts 165°
2026-04-28 17:12 33.36011 -7.58176 659 ft 13 kts 164°
2026-04-28 17:12 33.35928 -7.58148 659 ft 12 kts 164°
2026-04-28 17:12 33.35837 -7.58117 660 ft 16 kts 164°
2026-04-28 17:12 33.35717 -7.58076 661 ft 19 kts 164°
2026-04-28 17:13 33.35595 -7.58035 661 ft 18 kts 165°
2026-04-28 17:13 33.35478 -7.57995 661 ft 17 kts 164°
2026-04-28 17:13 33.35364 -7.57955 663 ft 17 kts 163°
2026-04-28 17:13 33.35269 -7.57977 663 ft 11 kts 228°
2026-04-28 17:14 33.35241 -7.58053 663 ft 10 kts 255°
2026-04-28 17:14 33.35224 -7.58129 661 ft 9 kts 253°
2026-04-28 17:14 33.35210 -7.58203 663 ft 9 kts 264°
2026-04-28 17:14 33.35235 -7.58268 665 ft 9 kts 326°
2026-04-28 17:15 33.35263 -7.58280 665 ft 0 kts 347°
2026-04-28 17:15 33.35282 -7.58286 665 ft 21 kts 345°
2026-04-28 17:15 33.35717 -7.58434 659 ft 107 kts 344°
2026-04-28 17:15 33.36653 -7.58751 772 ft 163 kts 344°
2026-04-28 17:16 33.37774 -7.59133 1508 ft 174 kts 343°
2026-04-28 17:16 33.38910 -7.59532 2524 ft 169 kts 339°
2026-04-28 17:16 33.39911 -7.60255 3404 ft 169 kts 315°
2026-04-28 17:16 33.40632 -7.61381 4192 ft 177 kts 297°
2026-04-28 17:17 33.41080 -7.62886 4564 ft 209 kts 279°
2026-04-28 17:17 33.41080 -7.64731 4816 ft 236 kts 258°
2026-04-28 17:17 33.40559 -7.66648 4977 ft 249 kts 248°
2026-04-28 17:17 33.39885 -7.68575 5035 ft 252 kts 246°
2026-04-28 17:18 33.39124 -7.70488 5570 ft 262 kts 232°
2026-04-28 17:18 33.37674 -7.71842 6367 ft 270 kts 207°
2026-04-28 17:18 33.35968 -7.72829 7298 ft 275 kts 205°
2026-04-28 17:18 33.34221 -7.73797 8224 ft 279 kts 205°
2026-04-28 17:19 33.32450 -7.74781 9138 ft 283 kts 205°
2026-04-28 17:19 33.30657 -7.75790 10034 ft 287 kts 205°
2026-04-28 17:19 33.28821 -7.76837 10612 ft 304 kts 206°
2026-04-28 17:19 33.26829 -7.77983 10871 ft 329 kts 206°
2026-04-28 17:20 33.24742 -7.79193 11533 ft 338 kts 206°
2026-04-28 17:20 33.23334 -7.80013 12177 ft 337 kts 206°
2026-04-28 17:20 33.20527 -7.81651 13547 ft 333 kts 206°
2026-04-28 17:20 33.18456 -7.82862 14575 ft 330 kts 206°
2026-04-28 17:21 33.16402 -7.84064 15537 ft 328 kts 206°
2026-04-28 17:21 33.14356 -7.85262 16417 ft 328 kts 206°
2026-04-28 17:21 33.12270 -7.86483 16841 ft 329 kts 206°
2026-04-28 17:22 33.08173 -7.88880 16994 ft 327 kts 206°
2026-04-28 17:22 33.06123 -7.90079 17010 ft 328 kts 206°
2026-04-28 17:22 33.04096 -7.91263 17010 ft 329 kts 206°
2026-04-28 17:23 32.99945 -7.93687 17010 ft 331 kts 206°
2026-04-28 17:23 32.97909 -7.94875 17007 ft 331 kts 206°
2026-04-28 17:23 32.95817 -7.96095 17005 ft 331 kts 206°
2026-04-28 17:23 32.93747 -7.97301 17001 ft 330 kts 206°
2026-04-28 17:24 32.91684 -7.98503 16999 ft 330 kts 206°
2026-04-28 17:24 32.90319 -7.99298 17000 ft 329 kts 206°
2026-04-28 17:24 32.87569 -8.00899 16999 ft 328 kts 206°
2026-04-28 17:24 32.86212 -8.01688 17000 ft 328 kts 206°
2026-04-28 17:25 32.84160 -8.02882 17003 ft 328 kts 206°
2026-04-28 17:25 32.79378 -8.05660 17001 ft 327 kts 206°
2026-04-28 17:25 32.78024 -8.06447 17001 ft 327 kts 206°
2026-04-28 17:26 32.75981 -8.07632 17001 ft 327 kts 206°
2026-04-28 17:26 32.73933 -8.08819 17003 ft 327 kts 206°
2026-04-28 17:26 32.71841 -8.09876 16995 ft 327 kts 198°
2026-04-28 17:26 32.69622 -8.10460 17005 ft 327 kts 189°
2026-04-28 17:27 32.67370 -8.10839 17003 ft 327 kts 188°
2026-04-28 17:27 32.65124 -8.11185 16989 ft 321 kts 187°
2026-04-28 17:27 32.62928 -8.11520 16990 ft 315 kts 187°
2026-04-28 17:27 32.60767 -8.11855 16994 ft 313 kts 188°
2026-04-28 17:28 32.58608 -8.12196 17006 ft 314 kts 188°
2026-04-28 17:28 32.54312 -8.12885 16730 ft 309 kts 188°
2026-04-28 17:28 32.52184 -8.13230 16349 ft 309 kts 188°
2026-04-28 17:29 32.50053 -8.13577 15963 ft 309 kts 188°
2026-04-28 17:29 32.47930 -8.13923 15635 ft 308 kts 188°
2026-04-28 17:29 32.45809 -8.14268 15319 ft 306 kts 188°
2026-04-28 17:30 32.41614 -8.14952 14708 ft 302 kts 188°
2026-04-28 17:30 32.37472 -8.15627 14208 ft 300 kts 188°
2026-04-28 17:30 32.35408 -8.15963 13961 ft 300 kts 188°
2026-04-28 17:31 32.33344 -8.16299 13708 ft 300 kts 188°
2026-04-28 17:31 32.29222 -8.16969 13214 ft 297 kts 188°
2026-04-28 17:32 32.25135 -8.17633 12710 ft 295 kts 188°
2026-04-28 17:32 32.23103 -8.17964 12462 ft 294 kts 188°
2026-04-28 17:32 32.21079 -8.18292 12212 ft 294 kts 188°
2026-04-28 17:32 32.19057 -8.18620 11960 ft 291 kts 188°
2026-04-28 17:33 32.17062 -8.18944 11697 ft 288 kts 188°
2026-04-28 17:33 32.15092 -8.19263 11449 ft 284 kts 188°
2026-04-28 17:33 32.13144 -8.19578 11197 ft 281 kts 188°
2026-04-28 17:33 32.11874 -8.19811 11026 ft 278 kts 194°
2026-04-28 17:34 32.09599 -8.21110 10698 ft 273 kts 211°
2026-04-28 17:34 32.07984 -8.22261 10447 ft 270 kts 211°
2026-04-28 17:34 32.06382 -8.23407 10191 ft 268 kts 211°
2026-04-28 17:34 32.04793 -8.24539 9936 ft 266 kts 211°
2026-04-28 17:35 32.03216 -8.25656 9687 ft 263 kts 211°
2026-04-28 17:35 32.01654 -8.26759 9435 ft 261 kts 211°
2026-04-28 17:35 32.00099 -8.27852 9185 ft 259 kts 211°
2026-04-28 17:35 31.98558 -8.28933 8933 ft 257 kts 211°
2026-04-28 17:36 31.97023 -8.30008 8679 ft 255 kts 211°
2026-04-28 17:36 31.95503 -8.31071 8430 ft 253 kts 211°
2026-04-28 17:36 31.93994 -8.32126 8177 ft 252 kts 211°
2026-04-28 17:36 31.92492 -8.33176 7926 ft 250 kts 211°
2026-04-28 17:37 31.91002 -8.34216 7674 ft 248 kts 211°
2026-04-28 17:37 31.89521 -8.35250 7421 ft 247 kts 211°
2026-04-28 17:37 31.88044 -8.36280 7176 ft 246 kts 211°
2026-04-28 17:37 31.86578 -8.37302 6967 ft 242 kts 211°
2026-04-28 17:38 31.85153 -8.38294 6978 ft 236 kts 211°
2026-04-28 17:38 31.83741 -8.39278 6979 ft 237 kts 210°
2026-04-28 17:38 31.82317 -8.40289 6976 ft 242 kts 220°
2026-04-28 17:38 31.81050 -8.41611 6994 ft 244 kts 220°
2026-04-28 17:39 31.79713 -8.42839 6987 ft 243 kts 215°
2026-04-28 17:39 31.78293 -8.43915 6984 ft 243 kts 210°
2026-04-28 17:39 31.75292 -8.45719 6982 ft 241 kts 204°
2026-04-28 17:40 31.73782 -8.46475 6966 ft 231 kts 202°
2026-04-28 17:40 31.72309 -8.47123 6967 ft 221 kts 199°
2026-04-28 17:40 31.70866 -8.47672 6982 ft 219 kts 197°
2026-04-28 17:40 31.69407 -8.48155 6974 ft 214 kts 195°
2026-04-28 17:41 31.67966 -8.48387 6929 ft 208 kts 172°
2026-04-28 17:41 31.66639 -8.47806 6945 ft 204 kts 147°
2026-04-28 17:41 31.65620 -8.46652 6946 ft 207 kts 125°
2026-04-28 17:41 31.65027 -8.45103 6957 ft 211 kts 103°
2026-04-28 17:42 31.64774 -8.43372 6806 ft 220 kts 98°
2026-04-28 17:42 31.64646 -8.42194 6659 ft 220 kts 97°
2026-04-28 17:42 31.64405 -8.39848 6327 ft 213 kts 97°
2026-04-28 17:42 31.64227 -8.38143 6092 ft 207 kts 97°
2026-04-28 17:43 31.64051 -8.36487 5885 ft 203 kts 98°
2026-04-28 17:43 31.63874 -8.34846 5677 ft 202 kts 98°
2026-04-28 17:43 31.63695 -8.33218 5479 ft 201 kts 98°
2026-04-28 17:43 31.63488 -8.31619 5382 ft 197 kts 101°
2026-04-28 17:44 31.63194 -8.30040 5214 ft 205 kts 103°
2026-04-28 17:44 31.62918 -8.28359 5012 ft 208 kts 99°
2026-04-28 17:44 31.62740 -8.26711 4787 ft 198 kts 97°
2026-04-28 17:44 31.62598 -8.25157 4584 ft 186 kts 96°
2026-04-28 17:45 31.62469 -8.23705 4395 ft 177 kts 96°
2026-04-28 17:45 31.62348 -8.22353 4327 ft 159 kts 96°
2026-04-28 17:45 31.62235 -8.21090 4149 ft 152 kts 97°
2026-04-28 17:45 31.62126 -8.19868 3960 ft 152 kts 97°
2026-04-28 17:46 31.62017 -8.18645 3759 ft 150 kts 97°
2026-04-28 17:46 31.61908 -8.17420 3557 ft 151 kts 97°
2026-04-28 17:46 31.61799 -8.16197 3354 ft 150 kts 96°
2026-04-28 17:46 31.61693 -8.14984 3157 ft 149 kts 97°
2026-04-28 17:47 31.61585 -8.13774 2954 ft 150 kts 96°
2026-04-28 17:47 31.61477 -8.12563 2758 ft 149 kts 96°
2026-04-28 17:47 31.61371 -8.11361 2555 ft 148 kts 97°
2026-04-28 17:47 31.61301 -8.10569 2430 ft 147 kts 97°
2026-04-28 17:48 31.61146 -8.09021 2160 ft 139 kts 97°
2026-04-28 17:48 31.61040 -8.07875 1991 ft 146 kts 96°
2026-04-28 17:48 31.60946 -8.06671 1800 ft 148 kts 96°
2026-04-28 17:48 31.60849 -8.05477 1592 ft 146 kts 96°
2026-04-28 17:49 31.60749 -8.04345 1526 ft 128 kts 96°
2026-04-28 17:49 31.60679 -8.03534 1534 ft 69 kts 96°
2026-04-28 17:49 31.60612 -8.03215 1540 ft 31 kts 119°
2026-04-28 17:49 31.60533 -8.03082 1541 ft 18 kts 126°
2026-04-28 17:50 31.60466 -8.02969 1538 ft 15 kts 116°
2026-04-28 17:50 31.60449 -8.02859 1543 ft 13 kts 96°
2026-04-28 17:50 31.60426 -8.02774 1537 ft 7 kts 157°
2026-04-28 17:50 31.60377 -8.02774 1544 ft 7 kts 188°
2026-04-28 17:51 31.60350 -8.02778 1538 ft 0 kts 186°
2026-04-28 17:51 31.60349 -8.02778 1539 ft 1 kts 186°
2026-04-28 17:51 31.60331 -8.02780 1544 ft 4 kts 186°
2026-04-28 17:51 31.60319 -8.02782 1544 ft 0 kts 185°
2026-04-28 17:55 31.60368 -8.02775 1544 ft 0 kts 185°